Location: Arleux
(50.3632°N, 2.8721°E)
Time: 07:26:39
(UTC+00:00)

Okean O Rocket - Pass Details

Date: 15 December 2019
Orbit: 624 x 644 km, 98.2° (Epoch: 26 January)

Event Time Altitude Azimuth Distance (km) Brightness Sun altitude
Rises 04:27:11 0° 26° (NNE) 2,938 5.3 -29.7°
Reaches altitude 10° 04:29:55 10° 44° (NE) 2,028 4.7 -29.3°
Maximum altitude 04:33:10 20° 92° (E) 1,480 4.2 -28.7°
Drops below altitude 10° 04:36:25 10° 139° (SE) 2,025 4.7 -28.2°
Sets 04:39:08 0° 157° (SSE) 2,932 5.4 -27.8°
